User: anonymous   Login
Location: Newark
(39.9581°N, 97.2014°W)
Time: 11:06:56
(UTC+00:00)
Language:

SR - Orbit

View from above orbital plane
View from above orbital plane
View from above satellite
View from above satellite

Ground track
Ground track

The orbit data is extracted from the following two-line orbital elements,

1    46U 60007B   20049.93976858 -.00000080 +00000-0 +75522-5 0  9998
2    46 066.6917 009.4338 0215036 221.8482 136.6017 14.49274106121790
Epoch (UTC): 18 February 2020 22:33:16
Eccentricity: 0.0215036
inclination: 66.6917°
perigee height: 575 km
apogee height: 881 km
right ascension of ascending node: 9.4338°
argument of perigee: 221.8482°
revolutions per day: 14.49274106
mean anomaly at epoch: 136.6017°
orbit number at epoch: 12179

The dashed part of the orbit path shows where the satellite is in the earth's shadow,  

DLR